When you browse on this site, cookies collect data to enhance your experience and personalize the content and advertising you see.
Visit our Privacy Policy to learn more. By continuing to use the site, you agree to this use of cookies and data.
  • In Hungary
  • List of Countries
  • For 7 days
  • Water Temperature
  • Satellite Maps
  • Weather Map
  • News
  • Weather Widgets
  • user-avatar
    Login

    Hourly Weather Rostock

    Today, 20 April, Saturday

    Time Temperature Precipitation Wind Pressure Humidity
    00:00 +3°C° 0 mm 3 mps 774 mmHg 67%
    01:00 +3°C° 0 mm 2 mps 774 mmHg 73%
    02:00 +3°C° 0 mm 2 mps 774 mmHg 74%
    03:00 +3°C° 0 mm 2 mps 774 mmHg 76%
    04:00 +3°C° 0 mm 2 mps 774 mmHg 78%
    05:00 +4°C° 0 mm 2 mps 774 mmHg 75%
    06:00 +5°C° 0 mm 2 mps 774 mmHg 72%
    07:00 +6°C° 0 mm 2 mps 774 mmHg 67%
    08:00 +8°C° 0 mm 2 mps 774 mmHg 62%
    09:00 +10°C° 0 mm 2 mps 774 mmHg 57%
    10:00 +12°C° 0 mm 3 mps 774 mmHg 52%
    11:00 +13°C° 0 mm 3 mps 773 mmHg 50%
    12:00 +14°C° 0 mm 3 mps 773 mmHg 49%
    13:00 +16°C° 0 mm 3 mps 773 mmHg 47%
    14:00 +16°C° 0 mm 3 mps 773 mmHg 48%
    15:00 +15°C° 0 mm 4 mps 772 mmHg 50%
    16:00 +15°C° 0 mm 4 mps 772 mmHg 51%
    17:00 +13°C° 0 mm 3 mps 772 mmHg 58%
    18:00 +11°C° 0 mm 3 mps 772 mmHg 64%
    19:00 +9°C° 0 mm 3 mps 771 mmHg 70%
    20:00 +8°C° 0 mm 3 mps 771 mmHg 69%
    21:00 +7°C° 0 mm 2 mps 771 mmHg 69%
    22:00 +6°C° 0 mm 2 mps 771 mmHg 68%
    23:00 +6°C° 0 mm 2 mps 771 mmHg 66%

    Tomorrow, 21 April, Sunday

    Time Temperature Precipitation Wind Pressure Humidity
    00:00 +5°C° 0 mm 2 mps 771 mmHg 65%
    01:00 +5°C° 0 mm 2 mps 771 mmHg 63%
    02:00 +5°C° 0 mm 2 mps 770 mmHg 63%
    03:00 +6°C° 0 mm 1 mps 770 mmHg 63%
    04:00 +5°C° 0 mm 1 mps 770 mmHg 63%
    05:00 +7°C° 0 mm 1 mps 770 mmHg 62%
    06:00 +8°C° 0 mm 1 mps 769 mmHg 62%
    07:00 +9°C° 0 mm 1 mps 769 mmHg 62%
    08:00 +11°C° 0 mm 1 mps 769 mmHg 58%
    09:00 +13°C° 0 mm 1 mps 769 mmHg 55%
    10:00 +15°C° 0 mm 1 mps 768 mmHg 52%
    11:00 +16°C° 0 mm 1 mps 768 mmHg 50%
    12:00 +18°C° 0 mm 1 mps 767 mmHg 48%
    13:00 +19°C° 0 mm 1 mps 767 mmHg 46%
    14:00 +18°C° 0 mm 2 mps 766 mmHg 47%
    15:00 +18°C° 0 mm 2 mps 766 mmHg 48%
    16:00 +18°C° 0 mm 2 mps 766 mmHg 50%
    17:00 +16°C° 0 mm 3 mps 765 mmHg 57%
    18:00 +13°C° 0 mm 3 mps 765 mmHg 65%
    19:00 +12°C° 0 mm 3 mps 765 mmHg 73%
    20:00 +10°C° 0 mm 3 mps 765 mmHg 70%
    21:00 +9°C° 0 mm 3 mps 765 mmHg 67%
    22:00 +8°C° 0 mm 3 mps 765 mmHg 64%
    23:00 +8°C° 0 mm 3 mps 764 mmHg 61%

    Day after tomorrow, 22 April, Monday

    Time Temperature Precipitation Wind Pressure Humidity
    00:00 +7°C° 0 mm 3 mps 764 mmHg 57%
    01:00 +7°C° 0 mm 3 mps 764 mmHg 53%
    02:00 +7°C° 0 mm 3 mps 764 mmHg 54%
    03:00 +5°C° 0 mm 3 mps 764 mmHg 55%
    04:00 +5°C° 0 mm 3 mps 764 mmHg 57%
    05:00 +7°C° 0 mm 3 mps 764 mmHg 59%
    06:00 +6°C° 0 mm 4 mps 764 mmHg 61%
    07:00 +7°C° 0 mm 4 mps 764 mmHg 63%
    08:00 +10°C° 0 mm 4 mps 764 mmHg 61%
    09:00 +12°C° 0 mm 5 mps 764 mmHg 59%
    10:00 +14°C° 0 mm 5 mps 763 mmHg 57%
    11:00 +15°C° 0 mm 5 mps 763 mmHg 56%
    12:00 +15°C° 0 mm 6 mps 763 mmHg 54%
    13:00 +16°C° 0 mm 6 mps 763 mmHg 52%
    14:00 +16°C° 0 mm 6 mps 762 mmHg 54%
    15:00 +16°C° 0 mm 6 mps 762 mmHg 55%
    16:00 +16°C° 0 mm 6 mps 762 mmHg 57%
    17:00 +14°C° 0 mm 6 mps 761 mmHg 63%
    18:00 +11°C° 0 mm 6 mps 761 mmHg 70%
    19:00 +10°C° 0 mm 6 mps 761 mmHg 76%
    20:00 +9°C° 0 mm 6 mps 761 mmHg 75%
    21:00 +9°C° 0 mm 5 mps 761 mmHg 75%
    22:00 +8°C° 0 mm 5 mps 761 mmHg 74%
    23:00 +8°C° 0 mm 5 mps 761 mmHg 75%

    23 April, Tuesday

    Time Temperature Precipitation Wind Pressure Humidity
    00:00 +8°C° 0 mm 5 mps 761 mmHg 76%
    01:00 +8°C° 0 mm 5 mps 761 mmHg 78%
    02:00 +8°C° 0 mm 6 mps 760 mmHg 79%
    03:00 +8°C° 0 mm 6 mps 760 mmHg 80%
    04:00 +8°C° 0 mm 6 mps 760 mmHg 82%
    05:00 +8°C° 0 mm 7 mps 760 mmHg 78%
    06:00 +8°C° 0 mm 7 mps 760 mmHg 74%
    07:00 +9°C° 0 mm 8 mps 759 mmHg 70%
    08:00 +10°C° 0 mm 8 mps 759 mmHg 67%
    09:00 +11°C° 0 mm 8 mps 759 mmHg 65%
    10:00 +12°C° 0 mm 8 mps 758 mmHg 63%
    11:00 +13°C° 0 mm 9 mps 758 mmHg 61%
    12:00 +16°C° 0 mm 9 mps 758 mmHg 60%
    13:00 +17°C° 0 mm 9 mps 757 mmHg 58%
    14:00 +17°C° 0 mm 9 mps 757 mmHg 59%
    15:00 +17°C° 0 mm 9 mps 756 mmHg 59%
    16:00 +17°C° 0 mm 8 mps 756 mmHg 60%
    17:00 +16°C° 0.1 mm 8 mps 756 mmHg 64%
    18:00 +15°C° 0.1 mm 7 mps 755 mmHg 67%
    19:00 +12°C° 0.1 mm 7 mps 755 mmHg 71%
    20:00 +12°C° 0.8 mm 7 mps 755 mmHg 77%
    21:00 +11°C° 0.8 mm 7 mps 754 mmHg 83%
    22:00 +10°C° 0.8 mm 7 mps 754 mmHg 90%
    23:00 +10°C° 0.2 mm 6 mps 754 mmHg 89%

    24 April, Wednesday

    Time Temperature Precipitation Wind Pressure Humidity
    00:00 +10°C° 0.2 mm 6 mps 753 mmHg 89%
    01:00 +10°C° 0.2 mm 6 mps 753 mmHg 89%
    02:00 +10°C° 0 mm 6 mps 753 mmHg 89%
    03:00 +9°C° 0 mm 6 mps 752 mmHg 90%
    04:00 +9°C° 0 mm 6 mps 752 mmHg 90%
    05:00 +9°C° 0.1 mm 6 mps 752 mmHg 90%
    06:00 +9°C° 0.1 mm 6 mps 752 mmHg 90%
    07:00 +10°C° 0.1 mm 6 mps 752 mmHg 89%
    08:00 +11°C° 0 mm 6 mps 752 mmHg 85%
    09:00 +14°C° 0 mm 6 mps 752 mmHg 82%
    10:00 +15°C° 0 mm 6 mps 752 mmHg 78%
    11:00 +17°C° 0 mm 6 mps 752 mmHg 74%
    12:00 +20°C° 0 mm 6 mps 752 mmHg 69%
    13:00 +22°C° 0 mm 6 mps 752 mmHg 65%
    14:00 +22°C° 0.5 mm 5 mps 752 mmHg 66%
    15:00 +22°C° 0.5 mm 5 mps 752 mmHg 67%
    16:00 +23°C° 0.5 mm 5 mps 752 mmHg 68%
    17:00 +21°C° 0.3 mm 5 mps 752 mmHg 72%
    18:00 +20°C° 0.3 mm 5 mps 752 mmHg 75%
    19:00 +19°C° 0.3 mm 5 mps 752 mmHg 79%
    20:00 +17°C° 0 mm 5 mps 753 mmHg 82%
    21:00 +16°C° 0 mm 5 mps 753 mmHg 84%
    22:00 +15°C° 0 mm 4 mps 754 mmHg 86%
    23:00 +15°C° 0 mm 4 mps 754 mmHg 88%

    25 April, Thursday

    Time Temperature Precipitation Wind Pressure Humidity
    00:00 +15°C° 0 mm 5 mps 754 mmHg 90%
    01:00 +14°C° 0 mm 5 mps 754 mmHg 91%
    02:00 +14°C° 0.7 mm 4 mps 755 mmHg 93%
    03:00 +14°C° 0.7 mm 3 mps 755 mmHg 94%
    04:00 +14°C° 0.7 mm 3 mps 755 mmHg 96%
    05:00 +14°C° 0.1 mm 3 mps 755 mmHg 95%
    06:00 +14°C° 0.1 mm 3 mps 756 mmHg 93%
    07:00 +14°C° 0.1 mm 3 mps 756 mmHg 92%
    08:00 +16°C° 0 mm 3 mps 757 mmHg 87%
    09:00 +16°C° 0 mm 2 mps 757 mmHg 81%
    10:00 +17°C° 0 mm 2 mps 757 mmHg 76%
    11:00 +19°C° 0 mm 1 mps 757 mmHg 71%
    12:00 +20°C° 0 mm 1 mps 757 mmHg 66%
    13:00 +19°C° 0 mm 0 mps 757 mmHg 61%
    14:00 +22°C° 0 mm 1 mps 757 mmHg 61%
    15:00 +22°C° 0 mm 1 mps 757 mmHg 61%
    16:00 +21°C° 0 mm 2 mps 757 mmHg 60%
    17:00 +20°C° 0 mm 3 mps 757 mmHg 68%
    18:00 +18°C° 0 mm 3 mps 757 mmHg 76%
    19:00 +17°C° 0 mm 4 mps 757 mmHg 84%
    20:00 +15°C° 0 mm 4 mps 756 mmHg 86%
    21:00 +14°C° 0 mm 4 mps 756 mmHg 87%
    22:00 +14°C° 0 mm 3 mps 756 mmHg 88%
    23:00 +13°C° 0 mm 3 mps 756 mmHg 90%
    Show more